TimeCDT,TemperatureF,Dew PointF,Humidity,Sea Level PressureIn,VisibilityMPH,Wind Direction,Wind SpeedMPH,Gust SpeedMPH,PrecipitationIn,Events,Conditions,WindDirDegrees,DateUTC
12:14 AM,73.4,71.6,94,29.85,7.0,SSE,8.1,-,N/A,,Clear,160,2013-08-21 05:14:00
12:33 AM,73.4,71.6,94,29.85,7.0,SSE,8.1,-,N/A,,Clear,160,2013-08-21 05:33:00
12:53 AM,73.4,71.6,94,29.84,7.0,South,5.8,-,N/A,,Clear,170,2013-08-21 05:53:00
1:14 AM,73.4,71.6,94,29.84,7.0,South,6.9,-,N/A,,Clear,180,2013-08-21 06:14:00
1:33 AM,73.4,71.6,94,29.84,7.0,South,6.9,-,N/A,,Clear,170,2013-08-21 06:33:00
1:53 AM,73.4,71.6,94,29.84,7.0,South,8.1,-,N/A,,Clear,180,2013-08-21 06:53:00
2:14 AM,73.4,71.6,94,29.84,7.0,South,5.8,-,N/A,,Clear,190,2013-08-21 07:14:00
2:34 AM,73.4,71.6,94,29.84,7.0,South,5.8,-,N/A,,Clear,190,2013-08-21 07:34:00
2:53 AM,73.4,71.6,94,29.84,7.0,SSW,5.8,-,N/A,,Clear,200,2013-08-21 07:53:00
3:13 AM,73.4,69.8,88,29.83,7.0,South,5.8,-,N/A,,Clear,190,2013-08-21 08:13:00
3:34 AM,71.6,68.0,88,29.82,7.0,South,4.6,-,N/A,,Clear,170,2013-08-21 08:34:00
3:53 AM,71.6,69.8,94,29.82,7.0,South,5.8,-,N/A,,Clear,180,2013-08-21 08:53:00
4:13 AM,71.6,69.8,94,29.82,7.0,South,4.6,-,N/A,,Clear,170,2013-08-21 09:13:00
4:34 AM,71.6,68.0,88,29.82,7.0,South,4.6,-,N/A,,Clear,170,2013-08-21 09:34:00
4:54 AM,71.6,68.0,88,29.82,7.0,SSE,3.5,-,N/A,,Clear,160,2013-08-21 09:54:00
5:13 AM,69.8,66.2,88,29.83,5.0,SSE,3.5,-,N/A,,Clear,150,2013-08-21 10:13:00
5:33 AM,69.8,66.2,88,29.83,7.0,SSE,5.8,-,N/A,,Clear,160,2013-08-21 10:33:00
5:54 AM,69.8,66.2,88,29.83,7.0,South,4.6,-,N/A,,Clear,170,2013-08-21 10:54:00
6:13 AM,69.8,66.2,88,29.83,7.0,South,4.6,-,N/A,,Clear,170,2013-08-21 11:13:00
6:34 AM,69.8,66.2,88,29.84,4.0,South,5.8,-,N/A,,Clear,190,2013-08-21 11:34:00
6:53 AM,69.8,66.2,88,29.85,5.0,Calm,Calm,-,N/A,,Clear,0,2013-08-21 11:53:00
7:14 AM,69.8,66.2,88,29.85,5.0,SSW,3.5,-,N/A,,Clear,200,2013-08-21 12:14:00
7:33 AM,69.8,66.2,88,29.87,4.0,SSW,4.6,-,N/A,,Clear,210,2013-08-21 12:33:00
7:53 AM,69.8,66.2,88,29.87,4.0,SW,4.6,-,N/A,,Clear,230,2013-08-21 12:53:00
8:14 AM,71.6,69.8,94,29.87,5.0,SW,5.8,-,N/A,,Clear,230,2013-08-21 13:14:00
8:34 AM,73.4,69.8,88,29.87,5.0,SW,5.8,-,N/A,,Clear,230,2013-08-21 13:34:00
8:53 AM,73.4,69.8,88,29.87,7.0,WSW,5.8,-,N/A,,Clear,240,2013-08-21 13:53:00
9:14 AM,73.4,69.8,88,29.87,7.0,West,5.8,-,N/A,,Clear,260,2013-08-21 14:14:00
9:33 AM,77.0,71.6,83,29.87,10.0,West,8.1,-,N/A,,Clear,280,2013-08-21 14:33:00
9:53 AM,78.8,71.6,78,29.87,7.0,WNW,8.1,-,N/A,,Clear,300,2013-08-21 14:53:00
10:14 AM,78.8,71.6,78,29.88,10.0,WNW,6.9,-,N/A,,Clear,290,2013-08-21 15:14:00
10:34 AM,80.6,73.4,79,29.89,10.0,WNW,6.9,-,N/A,,Clear,300,2013-08-21 15:34:00
10:53 AM,80.6,73.4,79,29.89,10.0,NW,11.5,-,N/A,,Clear,320,2013-08-21 15:53:00
11:14 AM,80.6,73.4,79,29.90,10.0,NNW,9.2,-,N/A,,Clear,330,2013-08-21 16:14:00
11:33 AM,80.6,71.6,74,29.91,10.0,NW,6.9,-,N/A,,Clear,320,2013-08-21 16:33:00
11:53 AM,82.4,73.4,74,29.91,10.0,North,9.2,-,N/A,,Scattered Clouds,350,2013-08-21 16:53:00
12:14 PM,82.4,73.4,74,29.91,10.0,North,10.4,-,N/A,,Scattered Clouds,360,2013-08-21 17:14:00
12:33 PM,82.4,71.6,70,29.91,10.0,NNW,6.9,-,N/A,,Scattered Clouds,340,2013-08-21 17:33:00
12:54 PM,82.4,71.6,70,29.91,10.0,NNE,6.9,-,N/A,,Mostly Cloudy,30,2013-08-21 17:54:00
1:14 PM,82.4,71.6,70,29.92,10.0,NNE,5.8,-,N/A,,Overcast,20,2013-08-21 18:14:00
1:33 PM,82.4,71.6,70,29.93,10.0,North,5.8,-,N/A,,Overcast,10,2013-08-21 18:33:00
1:53 PM,84.2,71.6,66,29.93,10.0,North,4.6,-,N/A,,Mostly Cloudy,360,2013-08-21 18:53:00
2:14 PM,82.4,71.6,70,29.95,10.0,North,4.6,-,N/A,,Overcast,10,2013-08-21 19:14:00
2:34 PM,84.2,69.8,62,29.95,10.0,NNE,3.5,-,N/A,,Mostly Cloudy,20,2013-08-21 19:34:00
2:53 PM,82.4,69.8,66,29.95,10.0,NNW,3.5,-,N/A,,Scattered Clouds,340,2013-08-21 19:53:00
3:14 PM,82.4,71.6,70,29.95,10.0,Calm,Calm,-,N/A,,Scattered Clouds,0,2013-08-21 20:14:00
3:34 PM,84.2,71.6,66,29.94,7.0,North,3.5,-,N/A,,Scattered Clouds,360,2013-08-21 20:34:00
3:52 PM,86.0,73.4,66,29.93,10.0,North,5.8,-,N/A,,Scattered Clouds,10,2013-08-21 20:52:00
4:14 PM,89.6,73.4,59,29.93,10.0,NNE,11.5,-,N/A,,Clear,20,2013-08-21 21:14:00
4:33 PM,89.6,73.4,59,29.93,10.0,North,8.1,-,N/A,,Clear,360,2013-08-21 21:33:00
4:53 PM,84.2,69.8,62,29.93,10.0,NNE,9.2,-,N/A,,Clear,20,2013-08-21 21:53:00
5:14 PM,87.8,69.8,55,29.94,10.0,NNE,8.1,-,N/A,,Clear,20,2013-08-21 22:14:00
5:33 PM,87.8,71.6,58,29.94,10.0,NNE,10.4,-,N/A,,Clear,20,2013-08-21 22:33:00
5:53 PM,84.2,69.8,62,29.95,10.0,Calm,Calm,-,N/A,,Clear,0,2013-08-21 22:53:00
6:14 PM,82.4,69.8,66,29.95,10.0,Calm,Calm,-,N/A,,Clear,0,2013-08-21 23:14:00
6:34 PM,84.2,68.0,58,29.95,10.0,Calm,Calm,-,N/A,,Clear,0,2013-08-21 23:34:00
6:53 PM,82.4,71.6,70,29.95,10.0,Calm,Calm,-,N/A,,Clear,0,2013-08-21 23:53:00
7:14 PM,82.4,69.8,66,29.95,10.0,Calm,Calm,-,N/A,,Clear,0,2013-08-22 00:14:00
7:34 PM,82.4,69.8,66,29.96,10.0,Calm,Calm,-,N/A,,Clear,0,2013-08-22 00:34:00
7:54 PM,78.8,71.6,78,29.96,10.0,North,6.9,-,N/A,,Clear,10,2013-08-22 00:54:00
8:13 PM,78.8,69.8,74,29.96,10.0,North,5.8,-,N/A,,Clear,360,2013-08-22 01:13:00
8:34 PM,77.0,69.8,78,29.96,10.0,North,5.8,-,N/A,,Clear,10,2013-08-22 01:34:00
8:53 PM,73.4,64.4,73,29.98,10.0,NNE,5.8,-,N/A,,Clear,30,2013-08-22 01:53:00
9:13 PM,73.4,64.4,73,29.99,10.0,NNE,5.8,-,N/A,,Clear,20,2013-08-22 02:13:00
9:34 PM,73.4,64.4,73,30.01,10.0,NNE,4.6,-,N/A,,Clear,30,2013-08-22 02:34:00
9:53 PM,73.4,66.2,78,30.01,10.0,NE,4.6,-,N/A,,Clear,40,2013-08-22 02:53:00
10:13 PM,71.6,64.4,78,30.01,10.0,NNE,5.8,-,N/A,,Clear,30,2013-08-22 03:13:00
10:33 PM,71.6,62.6,73,30.01,10.0,NE,4.6,-,N/A,,Scattered Clouds,40,2013-08-22 03:33:00
10:54 PM,73.4,64.4,73,30.00,10.0,NE,4.6,-,N/A,,Scattered Clouds,50,2013-08-22 03:54:00
11:14 PM,71.6,62.6,73,30.00,10.0,ENE,3.5,-,N/A,,Scattered Clouds,70,2013-08-22 04:14:00
11:34 PM,71.6,60.8,69,30.00,10.0,ENE,3.5,-,N/A,,Clear,70,2013-08-22 04:34:00
11:53 PM,69.8,60.8,73,30.01,10.0,NE,5.8,-,N/A,,Clear,50,2013-08-22 04:53:00